SCP
-0 -0 -0 -0 -0 -0 -0 -0 -0 -0 -0 -0 0 0 0 0 0 0 -0 -0 -0 -0 -0 -0 -0 0 -0 0 0 0 0 0 0 0 0 0 0 0 0 0 0 0 0 0 0 0 0
-0 -0 -0 -0 -0 -0 -0 -0 -0 -0 -0 -0 -0 -0 -0 -0 -0 -0 0 -0 0 -0 -0 -0 -0 0 0 0 0 0 0 0 0 0 0 0 0 0 0 0 0 0 0 0 0 0 0
0 -0 -0 -0 -0 -0 -0 -0 -0 -0 -0 -0 -0 -0 -0 0 0 0 0 0 0 -0 -0 -0 -0 0 0 0 0 0 0 0 0 0 0 0 0 0 0 0 0 0 0 0 0 0 0
-0 -0 0 -0 -0 -0 -0 -0 -0 -0 -0 -0 0 0 0 0 0 0 0 -0 -0 -0 -0 0 -0 0 -0 0 0 0 0 0 0 0 0 0 0 0 0 0 0 0 0 0 0 0 0
0 -0 -0 -0 -0 -0 -0 0 0 0 0 0 0 0 0 0 0 0 0 -0 -0 -0 0 0 0 -0 -0 -0 0 0 0 0 0 0 0 0 0 0 0 0 0 0 0 0 0 0 0
0 0 0 -0 -0 0 0 0 0 0 0 0 0 0 0 0 0 0 0 -0 -0 0 0 0 -0 -0 -0 -0 0 0 0 0 0 0 0 0 0 0 0 0 0 0 0 0 0 0 0
0 0 0 0 -0 -0 0 0 0 0 0 0 0 0 0 0 0 0 0 0 0 0 0 -0 -0 -0 -0 0 0 -0 0 0 0 0 0 0 0 0 0 0 0 0 0 0 0 0 0
0 0 0 0 0 0 -0 0 0 0 0 0 0 0 0 0 0 0 0 0 0 0 -0 -0 0 0 0 0 0 0 0 0 0 0 0 0 0 0 0 0 0 0 0 0 0 0 0
0 0 0 0 0 0 0 0 0 0 0 0 -0 -0 -0 -0 -0 0 0 0 0 0 0 0 0 0 0 0 0 -0 0 0 0 0 0 0 0 0 0 0 0 0 0 0 0 0 0
0 0 0 0 0 0 0 0 0 0 0 0 0 -0 -0 -0 0 0 0 0 0 0 0 0 0 0 0 0 0 0 0 0 0 0 0 0 0 0 0 0 0 0 0 0 0 0 0
0 0 0 0 0 0 0 0 0 0 0 0 0 -0 0 0 0 0 0 0 0 0 0 0 0 0 0 0 0 0 0 0 0 0 0 0 0 0 0 0 0 0 0 0 0 0 0
0 0 0 0 0 0 0 0 0 0 0 0 0 -0 -0 0 0 0 0 0 0 0 0 0 0 0 0 0 0 0 0 0 0 0 0 0 0 0 0 0 0 0 0 0 0 0 0
0 0 0 0 0 0 0 0 0 0 0 0 0 -0 0 0 0 0 0 0 0 0 0 0 0 0 0 0 0 0 0 0 0 0 0 0 0 0 0 0 0 0 0 0 0 0 0
0 0 0 0 0 0 0 0 0 0 0 0 0 0 0 0 0 0 0 0 0 0 0 0 0 0 0 0 0 0 0 0 -0 0 0 0 0 0 0 0 0 0 0 0 0 0 0
0 0 0 0 0 0 0 0 0 0 0 0 0 0 0 0 0 0 0 0 0 0 0 0 0 0 0 0 0 0 0 -0 0 0 0 -0 0 0 0 0 0 0 0 0 0 0 0
0 0 0 0 0 0 0 0 0 0 0 0 0 0 0 0 0 0 0 0 0 0 0 0 0 0 0 0 0 0 0 0 0 -0 0 0 0 0 0 0 0 0 0 0 0 0 0
0 0 0 0 0 0 0 0 0 0 0 0 0 0 0 0 0 0 0 0 0 0 0 0 0 0 0 0 0 0 0 0 0 -0 0 0 0 0 0 0 0 0 0 0 0 0 0
0 0 0 0 0 0 0 0 0 0 0 0 0 0 0 0 0 0 0 0 0 0 0 0 0 0 0 0 0 0 0 0 0 0 0 0 0 0 -0 0 0 0 0 0 0 0 0
0 0 0 0 0 0 0 0 0 0 0 0 0 0 0 0 0 0 0 0 0 0 0 0 0 0 0 0 0 0 0 0 0 0 0 0 0 0 0 0 0 0 0 0 0 -0 -0
0 0 0 0 0 0 0 0 0 0 0 0 0 0 0 0 0 0 0 0 0 0 0 0 0 0 0 0 0 0 0 0 0 0 0 0 0 0 0 0 0 0 0 0 0 -0 -0
0 0 0 0 0 0 0 0 0 0 0 0 0 0 0 0 0 0 0 0 0 0 0 0 0 0 -0 0 0 -0 0 0 0 0 0 0 0 0 0 0 0 0 0 0 0 -0 -0
0 0 0 0 0 0 0 0 0 0 0 0 0 0 0 0 0 0 0 0 0 0 0 0 0 0 0 0 0 -0 0 0 0 -0 0 0 0 0 -0 0 0 0 0 0 0 -0 -0
0 0 0 0 0 0 0 0 0 0 0 0 0 0 0 0 0 0 0 0 0 0 0 0 -0 -0 0 0 0 0 -0 -0 0 0 0 -0 -0 0 0 0 0 -0 0 -0 -0 -0 -0
0 0 0 0 0 0 0 0 0 0 0 0 0 0 0 0 0 0 0 0 0 0 0 0 0 0 0 0 0 0 0 0 -0 -0 -0 0 0 0 0 0 -0 0 0 -0 -0 -0 -0
0 0 0 0 0 0 0 0 0 0 0 0 0 0 0 0 0 0 0 0 0 0 0 0 -0 -0 0 0 0 0 0 0 0 0 0 -0 0 0 0 -0 -0 0 -0 -0 0 -0 0
0 0 0 0 0 0 0 0 0 0 0 0 0 0 0 0 0 0 0 0 0 0 0 0 -0 0 0 0 0 0 0 0 0 0 0 -0 -0 0 -0 -0 -0 -0 0 0 -0 0 0
0 0 0 0 0 0 0 0 0 0 0 0 0 0 0 0 0 0 0 0 0 0 0 0 0 0 0 0 0 0 0 0 0 0 0 -0 0 -0 0 0 -0 0 0 -0 0 0 0
0 0 0 0 0 0 0 0 0 0 0 0 0 0 0 0 0 0 0 0 0 0 0 0 0 0 0 0 0 0 0 0 0 0 0 0 0 0 0 0 0 -0 -0 -0 0 0 0
0 0 0 0 0 0 0 0 -0 0 0 0 0 0 0 0 0 0 0 0 -0 -0 0 0 0 0 0 0 0 0 0 0 0 0 0 0 0 0 0 0 0 -0 -0 -0 0 0 0
Wind_Speed_500mb
34 34 35 36 37 37 37 36 36 34 35 34 35 36 37 39 40 40 37 36 36 38 41 45 46 46 42 24 32 31 19 33 38 37 24 18 45 31 12 11 17 26 11 32 46 35 32
34 34 35 34 35 37 38 37 36 35 34 33 33 34 36 38 37 33 30 27 31 40 45 48 49 35 19 13 35 53 53 47 40 40 21 13 14 40 17 13 32 2 17 32 28 33 24
33 34 35 36 37 39 40 40 39 39 41 42 43 42 43 45 43 39 33 30 32 41 41 37 39 40 32 54 43 43 34 33 35 39 46 30 27 35 7 7 28 20 10 6 14 12 17
35 37 37 38 40 41 44 45 46 47 47 47 46 45 45 46 42 38 28 30 35 42 39 38 55 39 28 36 48 27 51 51 49 54 40 40 24 24 33 19 7 9 10 24 28 20 16
35 36 36 38 39 41 43 45 46 47 48 48 48 47 47 48 43 41 37 38 41 53 41 39 37 18 27 42 48 54 46 45 53 50 34 29 28 21 13 10 8 8 27 13 9 18 15
36 36 37 39 40 42 44 46 48 48 49 49 48 46 43 44 38 37 34 41 43 19 24 28 12 13 20 47 57 50 38 18 29 52 24 20 19 8 6 14 31 13 5 4 7 13 30
38 38 39 40 42 45 47 48 49 49 50 50 46 43 40 37 31 31 36 41 45 13 47 18 36 37 55 51 55 39 32 14 15 14 6 11 7 27 28 18 6 8 6 6 5 3 7
40 40 41 43 45 48 50 52 51 49 47 46 44 42 39 31 26 19 27 16 20 22 25 25 27 36 40 35 31 37 27 12 11 7 9 10 28 10 2 15 18 14 1 6 11 17 8
41 41 42 43 44 47 50 54 54 52 50 46 43 43 37 23 19 13 22 15 26 36 8 24 27 25 34 41 27 20 17 11 3 5 10 12 14 12 9 7 8 8 9 6 12 15 26
45 45 46 48 49 50 52 53 54 53 50 50 48 42 33 21 10 25 8 28 37 14 6 11 12 11 39 42 10 11 14 9 1 11 8 9 13 8 8 12 19 13 8 4 4 3 11
46 48 49 50 52 53 54 54 53 54 51 50 46 37 25 14 19 22 26 35 21 6 7 25 11 23 64 14 37 10 25 7 13 27 6 14 4 8 10 12 12 13 19 17 15 14 8
46 49 51 53 55 57 59 59 55 57 55 55 50 35 14 6 19 26 35 36 6 10 7 13 21 32 24 21 31 16 17 9 16 13 13 21 11 6 10 9 17 11 10 9 5 6 8
47 48 49 51 54 58 62 63 61 58 58 54 42 23 8 10 18 29 38 5 9 9 9 14 18 31 28 12 15 11 21 10 4 7 8 8 28 20 13 11 8 9 10 4 2 5 16
47 49 50 52 55 58 62 66 65 62 58 53 30 11 8 13 19 30 32 9 10 4 9 12 20 30 9 15 13 13 18 6 7 5 4 6 5 10 7 16 14 13 15 9 12 11 10
46 49 51 54 56 59 61 64 66 63 59 53 26 8 10 15 21 28 17 9 10 9 8 14 24 7 7 12 5 13 7 6 6 8 6 7 9 8 4 3 10 7 9 13 5 6 1
48 50 52 53 55 57 60 62 65 64 59 53 29 7 8 12 20 25 10 4 6 9 11 12 7 7 11 21 12 10 8 6 6 1 6 8 9 4 7 6 19 9 6 5 2 9 9
51 52 54 54 55 58 60 59 62 66 60 52 23 2 10 10 17 10 5 8 10 17 17 7 12 15 17 15 7 7 12 13 3 5 0 2 1 9 9 8 12 7 5 4 5 9 7
52 53 56 59 57 57 58 58 57 63 65 55 16 4 13 11 8 5 1 7 15 17 13 10 7 10 9 5 9 8 12 7 3 1 11 4 2 6 14 11 7 6 6 9 7 11 9
50 53 59 63 62 56 55 56 53 54 59 54 22 9 9 17 4 5 11 10 11 8 13 6 8 7 3 5 10 9 10 14 7 8 7 3 2 7 8 4 7 1 7 7 4 3 11
47 53 58 65 61 61 54 55 53 47 49 37 15 8 8 10 6 5 9 11 9 15 16 8 10 11 6 15 15 11 12 12 5 12 18 4 3 9 9 4 3 7 14 15 6 10 10
46 51 55 61 62 60 57 53 51 45 39 24 15 3 5 8 6 10 9 9 17 11 7 9 8 8 16 15 26 27 23 14 19 14 1 9 11 10 16 16 19 20 27 26 29 20 13
49 52 55 59 62 60 58 52 46 45 37 14 13 10 7 15 28 9 7 7 14 13 11 22 13 30 28 26 29 42 35 28 23 7 11 11 7 4 16 20 22 27 31 34 35 35 31
50 52 55 57 60 59 58 53 42 34 36 12 17 7 6 12 9 5 7 8 17 33 21 22 31 34 30 33 36 58 65 65 35 13 14 11 9 6 8 8 11 18 30 36 31 27 24
51 51 52 58 60 59 56 50 37 24 27 25 23 15 4 8 6 8 15 33 34 22 29 43 47 18 30 70 80 53 44 40 36 32 28 11 11 8 7 4 9 12 18 14 31 31 37
51 52 57 64 64 58 52 45 35 19 20 25 26 14 7 7 15 25 17 14 33 35 30 33 51 49 56 32 10 13 5 5 6 6 26 29 12 6 6 8 17 22 2 8 8 14 22
54 57 65 71 64 56 53 43 33 20 20 23 27 23 13 11 9 23 28 31 12 11 9 18 51 43 18 7 6 7 6 8 6 8 8 19 22 13 6 6 8 2 4 19 8 14 8
58 62 69 69 61 51 51 46 37 26 21 19 27 32 17 15 29 16 16 12 15 10 8 19 24 13 21 8 6 4 7 11 8 10 6 2 9 24 16 9 13 2 7 18 12 5 16
63 69 70 65 57 51 51 45 35 32 21 22 29 31 31 19 55 45 27 35 29 22 5 15 19 7 8 11 7 6 5 6 8 6 6 4 4 7 7 10 16 22 20 13 5 21 22
66 66 64 60 54 42 51 45 36 26 26 23 33 29 32 43 62 81 84 68 72 61 35 10 8 9 4 4 4 6 6 6 10 7 3 4 4 4 6 5 14 46 40 57 55 42 20
Wind_Direction_500mb
33 30 27 23 19 17 12 10 6 3 0 356 353 351 348 345 341 340 339 339 341 338 331 329 327 322 328 315 292 329 302 289 289 302 298 270 214 221 198 204 210 235 215 215 231 237 245
20 19 17 15 11 8 6 3 0 357 356 353 349 349 347 346 347 348 344 343 344 331 327 326 327 323 328 281 326 321 307 289 285 299 276 244 217 223 282 211 204 51 226 239 236 245 241
15 13 11 10 6 3 0 359 358 357 356 355 353 352 350 349 349 350 345 340 348 338 336 334 339 330 295 287 324 343 351 3 332 301 275 234 228 234 302 288 263 263 279 265 221 216 236
11 10 8 7 8 6 4 2 1 360 358 355 352 350 349 348 346 348 347 331 339 333 329 325 332 322 285 336 331 328 328 319 343 338 287 241 222 264 233 271 291 190 174 237 232 185 217
17 16 14 13 10 9 7 4 2 358 354 353 351 351 351 348 344 344 342 334 330 320 311 304 326 311 287 330 331 334 327 316 315 333 309 233 233 217 176 200 349 251 235 214 249 206 182
15 13 10 9 9 8 6 3 359 356 353 352 349 349 349 345 336 335 335 332 331 329 323 322 321 317 309 321 331 330 322 319 314 321 316 231 224 184 169 169 215 202 170 159 190 200 198
17 14 12 11 9 7 5 3 360 355 354 354 349 346 347 344 331 328 332 346 11 350 328 283 289 279 291 320 329 348 329 264 304 339 280 238 196 215 214 234 254 44 97 63 343 231 353
19 16 13 10 6 4 4 4 3 357 354 354 348 344 345 346 325 324 340 23 5 332 301 307 286 283 312 312 307 340 353 232 129 264 319 326 236 246 114 195 241 271 234 237 276 267 231
18 15 11 7 3 1 0 1 2 360 354 353 347 339 343 350 331 325 348 9 332 328 260 295 313 298 333 326 305 325 3 351 106 217 242 208 266 221 175 211 197 189 201 187 222 291 285
18 14 11 9 5 1 357 356 358 358 355 350 345 333 339 357 1 330 340 338 326 310 41 288 329 344 340 337 313 302 353 258 88 260 233 207 264 192 190 223 224 238 180 270 329 171 257
16 14 12 11 9 5 1 355 355 355 352 348 343 329 331 345 349 354 340 337 329 159 348 319 331 331 336 333 313 314 328 255 214 226 307 247 225 247 222 205 177 236 177 207 221 257 283
12 12 10 8 7 5 3 359 355 354 350 348 343 327 319 332 352 347 339 336 132 48 281 329 332 327 343 309 328 309 302 330 279 243 222 249 270 201 230 261 207 202 183 157 82 137 250
8 7 4 4 5 3 2 0 357 354 350 351 349 351 96 24 360 352 341 1 43 100 325 324 320 325 320 298 320 335 331 333 46 314 32 256 238 238 243 280 244 184 115 123 107 197 229
7 8 3 2 2 1 359 357 357 356 352 352 355 23 70 22 356 354 348 53 75 251 266 293 307 312 296 4 309 313 320 347 292 288 139 275 283 175 222 188 196 192 167 168 174 192 213
2 4 359 359 359 359 360 358 356 357 355 350 1 73 62 25 0 354 347 51 194 218 248 302 315 291 288 317 283 333 295 279 326 4 303 204 269 321 3 198 154 178 177 210 356 289 88
359 358 353 355 356 357 358 358 358 357 357 351 354 129 47 16 359 349 59 275 231 220 293 296 265 239 293 316 328 353 291 243 326 222 144 313 305 199 148 226 232 175 198 132 308 208 234
357 356 354 352 351 351 353 357 357 357 358 355 353 108 3 335 332 360 114 249 279 277 308 277 257 274 285 299 277 284 273 306 53 314 205 326 75 304 338 210 193 170 261 230 187 182 209
355 355 353 349 348 348 349 353 357 355 357 360 3 39 16 345 30 53 17 294 290 277 316 281 251 256 250 312 276 264 241 230 199 343 315 19 151 264 246 264 5 351 269 201 192 251 258
352 352 352 352 353 346 347 349 356 357 357 352 349 312 336 355 75 324 305 284 269 296 306 325 285 251 264 256 283 258 290 304 304 180 220 186 276 312 304 11 40 311 289 234 206 126 222
348 349 351 346 347 350 345 346 350 359 357 355 355 358 340 41 73 101 319 289 281 268 280 326 265 266 344 285 241 278 276 296 311 222 254 185 214 219 229 275 114 293 293 296 241 230 244
337 338 337 340 343 344 345 342 342 357 3 5 9 21 4 304 317 316 258 267 287 315 245 305 281 260 305 294 298 266 258 266 262 273 319 176 224 231 254 279 284 263 267 268 268 257 251
327 330 334 335 338 339 341 342 340 344 9 7 4 356 333 286 288 266 261 255 295 310 306 307 260 301 298 289 279 290 281 266 267 246 180 189 233 205 289 273 253 264 260 257 253 255 256
329 331 334 336 339 339 339 339 340 346 356 0 344 295 275 281 292 335 250 259 294 315 290 265 296 298 295 290 288 278 271 265 250 219 205 192 192 150 252 245 322 277 251 255 247 228 219
327 330 334 336 335 336 334 334 337 339 333 341 341 326 282 274 260 237 290 288 287 286 282 296 293 277 281 304 302 289 263 249 247 239 205 182 171 176 251 326 248 245 313 286 249 222 215
325 325 329 332 331 332 331 332 330 324 316 315 320 303 250 272 251 295 298 280 296 290 282 274 287 304 310 315 316 321 341 245 214 235 213 207 171 204 214 200 287 295 87 4 332 263 217
320 322 326 326 327 332 333 330 325 317 307 298 302 297 247 279 242 300 303 288 284 298 295 296 314 321 326 13 332 314 315 293 321 317 70 207 205 198 174 239 252 183 83 7 328 269 178
321 322 325 324 327 332 333 329 328 315 298 289 287 295 256 256 279 292 283 278 299 287 281 299 333 329 8 354 340 319 295 330 312 312 339 177 179 214 211 243 281 111 8 1 217 252 309
320 322 323 326 332 332 331 330 326 325 305 289 288 292 273 260 287 278 261 268 274 245 258 312 331 345 348 359 338 326 292 312 289 284 340 306 274 186 205 218 250 15 327 200 353 319 308
319 321 325 328 326 328 327 328 320 308 314 300 287 292 293 256 273 292 290 276 254 249 265 283 276 293 245 322 325 300 297 286 302 327 282 316 256 294 234 278 313 285 237 267 278 278 309
Wind_Speed_850mb
34 34 35 36 37 37 37 36 36 34 35 34 35 36 37 39 40 40 37 36 36 38 41 45 46 46 42 24 32 31 19 33 38 37 24 18 45 31 12 11 17 26 11 32 46 35 32
34 34 35 34 35 37 38 37 36 35 34 33 33 34 36 38 37 33 30 27 31 40 45 48 49 35 19 13 35 53 53 47 40 40 21 13 14 40 17 13 32 2 17 32 28 33 24
33 34 35 36 37 39 40 40 39 39 41 42 43 42 43 45 43 39 33 30 32 41 41 37 39 40 32 54 43 43 34 33 35 39 46 30 27 35 7 7 28 20 10 6 14 12 17
35 37 37 38 40 41 44 45 46 47 47 47 46 45 45 46 42 38 28 30 35 42 39 38 55 39 28 36 48 27 51 51 49 54 40 40 24 24 33 19 7 9 10 24 28 20 16
35 36 36 38 39 41 43 45 46 47 48 48 48 47 47 48 43 41 37 38 41 53 41 39 37 18 27 42 48 54 46 45 53 50 34 29 28 21 13 10 8 8 27 13 9 18 15
36 36 37 39 40 42 44 46 48 48 49 49 48 46 43 44 38 37 34 41 43 19 24 28 12 13 20 47 57 50 38 18 29 52 24 20 19 8 6 14 31 13 5 4 7 13 30
38 38 39 40 42 45 47 48 49 49 50 50 46 43 40 37 31 31 36 41 45 13 47 18 36 37 55 51 55 39 32 14 15 14 6 11 7 27 28 18 6 8 6 6 5 3 7
40 40 41 43 45 48 50 52 51 49 47 46 44 42 39 31 26 19 27 16 20 22 25 25 27 36 40 35 31 37 27 12 11 7 9 10 28 10 2 15 18 14 1 6 11 17 8
41 41 42 43 44 47 50 54 54 52 50 46 43 43 37 23 19 13 22 15 26 36 8 24 27 25 34 41 27 20 17 11 3 5 10 12 14 12 9 7 8 8 9 6 12 15 26
45 45 46 48 49 50 52 53 54 53 50 50 48 42 33 21 10 25 8 28 37 14 6 11 12 11 39 42 10 11 14 9 1 11 8 9 13 8 8 12 19 13 8 4 4 3 11
46 48 49 50 52 53 54 54 53 54 51 50 46 37 25 14 19 22 26 35 21 6 7 25 11 23 64 14 37 10 25 7 13 27 6 14 4 8 10 12 12 13 19 17 15 14 8
46 49 51 53 55 57 59 59 55 57 55 55 50 35 14 6 19 26 35 36 6 10 7 13 21 32 24 21 31 16 17 9 16 13 13 21 11 6 10 9 17 11 10 9 5 6 8
47 48 49 51 54 58 62 63 61 58 58 54 42 23 8 10 18 29 38 5 9 9 9 14 18 31 28 12 15 11 21 10 4 7 8 8 28 20 13 11 8 9 10 4 2 5 16
47 49 50 52 55 58 62 66 65 62 58 53 30 11 8 13 19 30 32 9 10 4 9 12 20 30 9 15 13 13 18 6 7 5 4 6 5 10 7 16 14 13 15 9 12 11 10
46 49 51 54 56 59 61 64 66 63 59 53 26 8 10 15 21 28 17 9 10 9 8 14 24 7 7 12 5 13 7 6 6 8 6 7 9 8 4 3 10 7 9 13 5 6 1
48 50 52 53 55 57 60 62 65 64 59 53 29 7 8 12 20 25 10 4 6 9 11 12 7 7 11 21 12 10 8 6 6 1 6 8 9 4 7 6 19 9 6 5 2 9 9
51 52 54 54 55 58 60 59 62 66 60 52 23 2 10 10 17 10 5 8 10 17 17 7 12 15 17 15 7 7 12 13 3 5 0 2 1 9 9 8 12 7 5 4 5 9 7
52 53 56 59 57 57 58 58 57 63 65 55 16 4 13 11 8 5 1 7 15 17 13 10 7 10 9 5 9 8 12 7 3 1 11 4 2 6 14 11 7 6 6 9 7 11 9
50 53 59 63 62 56 55 56 53 54 59 54 22 9 9 17 4 5 11 10 11 8 13 6 8 7 3 5 10 9 10 14 7 8 7 3 2 7 8 4 7 1 7 7 4 3 11
47 53 58 65 61 61 54 55 53 47 49 37 15 8 8 10 6 5 9 11 9 15 16 8 10 11 6 15 15 11 12 12 5 12 18 4 3 9 9 4 3 7 14 15 6 10 10
46 51 55 61 62 60 57 53 51 45 39 24 15 3 5 8 6 10 9 9 17 11 7 9 8 8 16 15 26 27 23 14 19 14 1 9 11 10 16 16 19 20 27 26 29 20 13
49 52 55 59 62 60 58 52 46 45 37 14 13 10 7 15 28 9 7 7 14 13 11 22 13 30 28 26 29 42 35 28 23 7 11 11 7 4 16 20 22 27 31 34 35 35 31
50 52 55 57 60 59 58 53 42 34 36 12 17 7 6 12 9 5 7 8 17 33 21 22 31 34 30 33 36 58 65 65 35 13 14 11 9 6 8 8 11 18 30 36 31 27 24
51 51 52 58 60 59 56 50 37 24 27 25 23 15 4 8 6 8 15 33 34 22 29 43 47 18 30 70 80 53 44 40 36 32 28 11 11 8 7 4 9 12 18 14 31 31 37
51 52 57 64 64 58 52 45 35 19 20 25 26 14 7 7 15 25 17 14 33 35 30 33 51 49 56 32 10 13 5 5 6 6 26 29 12 6 6 8 17 22 2 8 8 14 22
54 57 65 71 64 56 53 43 33 20 20 23 27 23 13 11 9 23 28 31 12 11 9 18 51 43 18 7 6 7 6 8 6 8 8 19 22 13 6 6 8 2 4 19 8 14 8
58 62 69 69 61 51 51 46 37 26 21 19 27 32 17 15 29 16 16 12 15 10 8 19 24 13 21 8 6 4 7 11 8 10 6 2 9 24 16 9 13 2 7 18 12 5 16
63 69 70 65 57 51 51 45 35 32 21 22 29 31 31 19 55 45 27 35 29 22 5 15 19 7 8 11 7 6 5 6 8 6 6 4 4 7 7 10 16 22 20 13 5 21 22
66 66 64 60 54 42 51 45 36 26 26 23 33 29 32 43 62 81 84 68 72 61 35 10 8 9 4 4 4 6 6 6 10 7 3 4 4 4 6 5 14 46 40 57 55 42 20
Wind_Direction_850mb
33 30 27 23 19 17 12 10 6 3 0 356 353 351 348 345 341 340 339 339 341 338 331 329 327 322 328 315 292 329 302 289 289 302 298 270 214 221 198 204 210 235 215 215 231 237 245
20 19 17 15 11 8 6 3 0 357 356 353 349 349 347 346 347 348 344 343 344 331 327 326 327 323 328 281 326 321 307 289 285 299 276 244 217 223 282 211 204 51 226 239 236 245 241
15 13 11 10 6 3 0 359 358 357 356 355 353 352 350 349 349 350 345 340 348 338 336 334 339 330 295 287 324 343 351 3 332 301 275 234 228 234 302 288 263 263 279 265 221 216 236
11 10 8 7 8 6 4 2 1 360 358 355 352 350 349 348 346 348 347 331 339 333 329 325 332 322 285 336 331 328 328 319 343 338 287 241 222 264 233 271 291 190 174 237 232 185 217
17 16 14 13 10 9 7 4 2 358 354 353 351 351 351 348 344 344 342 334 330 320 311 304 326 311 287 330 331 334 327 316 315 333 309 233 233 217 176 200 349 251 235 214 249 206 182
15 13 10 9 9 8 6 3 359 356 353 352 349 349 349 345 336 335 335 332 331 329 323 322 321 317 309 321 331 330 322 319 314 321 316 231 224 184 169 169 215 202 170 159 190 200 198
17 14 12 11 9 7 5 3 360 355 354 354 349 346 347 344 331 328 332 346 11 350 328 283 289 279 291 320 329 348 329 264 304 339 280 238 196 215 214 234 254 44 97 63 343 231 353
19 16 13 10 6 4 4 4 3 357 354 354 348 344 345 346 325 324 340 23 5 332 301 307 286 283 312 312 307 340 353 232 129 264 319 326 236 246 114 195 241 271 234 237 276 267 231
18 15 11 7 3 1 0 1 2 360 354 353 347 339 343 350 331 325 348 9 332 328 260 295 313 298 333 326 305 325 3 351 106 217 242 208 266 221 175 211 197 189 201 187 222 291 285
18 14 11 9 5 1 357 356 358 358 355 350 345 333 339 357 1 330 340 338 326 310 41 288 329 344 340 337 313 302 353 258 88 260 233 207 264 192 190 223 224 238 180 270 329 171 257
16 14 12 11 9 5 1 355 355 355 352 348 343 329 331 345 349 354 340 337 329 159 348 319 331 331 336 333 313 314 328 255 214 226 307 247 225 247 222 205 177 236 177 207 221 257 283
12 12 10 8 7 5 3 359 355 354 350 348 343 327 319 332 352 347 339 336 132 48 281 329 332 327 343 309 328 309 302 330 279 243 222 249 270 201 230 261 207 202 183 157 82 137 250
8 7 4 4 5 3 2 0 357 354 350 351 349 351 96 24 360 352 341 1 43 100 325 324 320 325 320 298 320 335 331 333 46 314 32 256 238 238 243 280 244 184 115 123 107 197 229
7 8 3 2 2 1 359 357 357 356 352 352 355 23 70 22 356 354 348 53 75 251 266 293 307 312 296 4 309 313 320 347 292 288 139 275 283 175 222 188 196 192 167 168 174 192 213
2 4 359 359 359 359 360 358 356 357 355 350 1 73 62 25 0 354 347 51 194 218 248 302 315 291 288 317 283 333 295 279 326 4 303 204 269 321 3 198 154 178 177 210 356 289 88
359 358 353 355 356 357 358 358 358 357 357 351 354 129 47 16 359 349 59 275 231 220 293 296 265 239 293 316 328 353 291 243 326 222 144 313 305 199 148 226 232 175 198 132 308 208 234
357 356 354 352 351 351 353 357 357 357 358 355 353 108 3 335 332 360 114 249 279 277 308 277 257 274 285 299 277 284 273 306 53 314 205 326 75 304 338 210 193 170 261 230 187 182 209
355 355 353 349 348 348 349 353 357 355 357 360 3 39 16 345 30 53 17 294 290 277 316 281 251 256 250 312 276 264 241 230 199 343 315 19 151 264 246 264 5 351 269 201 192 251 258
352 352 352 352 353 346 347 349 356 357 357 352 349 312 336 355 75 324 305 284 269 296 306 325 285 251 264 256 283 258 290 304 304 180 220 186 276 312 304 11 40 311 289 234 206 126 222
348 349 351 346 347 350 345 346 350 359 357 355 355 358 340 41 73 101 319 289 281 268 280 326 265 266 344 285 241 278 276 296 311 222 254 185 214 219 229 275 114 293 293 296 241 230 244
337 338 337 340 343 344 345 342 342 357 3 5 9 21 4 304 317 316 258 267 287 315 245 305 281 260 305 294 298 266 258 266 262 273 319 176 224 231 254 279 284 263 267 268 268 257 251
327 330 334 335 338 339 341 342 340 344 9 7 4 356 333 286 288 266 261 255 295 310 306 307 260 301 298 289 279 290 281 266 267 246 180 189 233 205 289 273 253 264 260 257 253 255 256
329 331 334 336 339 339 339 339 340 346 356 0 344 295 275 281 292 335 250 259 294 315 290 265 296 298 295 290 288 278 271 265 250 219 205 192 192 150 252 245 322 277 251 255 247 228 219
327 330 334 336 335 336 334 334 337 339 333 341 341 326 282 274 260 237 290 288 287 286 282 296 293 277 281 304 302 289 263 249 247 239 205 182 171 176 251 326 248 245 313 286 249 222 215
325 325 329 332 331 332 331 332 330 324 316 315 320 303 250 272 251 295 298 280 296 290 282 274 287 304 310 315 316 321 341 245 214 235 213 207 171 204 214 200 287 295 87 4 332 263 217
320 322 326 326 327 332 333 330 325 317 307 298 302 297 247 279 242 300 303 288 284 298 295 296 314 321 326 13 332 314 315 293 321 317 70 207 205 198 174 239 252 183 83 7 328 269 178
321 322 325 324 327 332 333 329 328 315 298 289 287 295 256 256 279 292 283 278 299 287 281 299 333 329 8 354 340 319 295 330 312 312 339 177 179 214 211 243 281 111 8 1 217 252 309
320 322 323 326 332 332 331 330 326 325 305 289 288 292 273 260 287 278 261 268 274 245 258 312 331 345 348 359 338 326 292 312 289 284 340 306 274 186 205 218 250 15 327 200 353 319 308
319 321 325 328 326 328 327 328 320 308 314 300 287 292 293 256 273 292 290 276 254 249 265 283 276 293 245 322 325 300 297 286 302 327 282 316 256 294 234 278 313 285 237 267 278 278 309